India Forums Logo

Hum ne li hai... Shapath

India Forums > Forum Index > Hum ne li hai... Shapath
Hum ne li hai... Shapath is a story of tough cops against the flawed system with thrilling and contemporary police cases weaved in.
Concept & Story: Hum ne li hai... Shapath is a story of tough cops against the flawed system with thrilling and contemporary police cases weaved in.
<< | 1 | 2 | 3 | 4 | 5 | 6 | 7 | 8 | 9 | 10 | ... >>
TIDTopic SubjectStart DateLast Entry
2706184~HNLHS Picture Gallery~[No Comments]1/17/2012 6:35:49 AM2/26/2014 10:54:15 PM
2706211~HNLHS Creation Gallery #1~1/17/2012 6:38:36 AM8/23/2013 4:22:00 PM
2706223~HNLHS Article Archive~1/17/2012 6:39:56 AM3/6/2014 8:24:57 AM
2706239~HNLHS Help Desk~1/17/2012 6:41:26 AM3/13/2014 10:18:48 AM
2706249~HNLHS Media Center~1/17/2012 6:42:35 AM1/17/2012 11:32:45 PM
2706264~HNLHS Daily Disscussion Thread~1/17/2012 6:44:14 AM8/7/2012 12:50:59 AM
2706308~HNLHS Introduction corner~1/17/2012 6:49:02 AM3/8/2012 7:30:30 PM
2706340~HNLHS Actors Twitter/FB updts~1/17/2012 6:52:32 AM4/9/2012 1:33:40 AM
2707329y no fans here??1/17/2012 8:49:00 AM1/18/2012 8:58:20 AM
2707991||**HNLHS Members Birthday Threat**||1/17/2012 10:04:36 AM4/20/2012 6:40:43 AM
2708072*|~|*Bold & Beautiful Sikha's AT#1*|~|*1/17/2012 10:13:19 AM2/6/2012 7:32:35 AM
2708104Episode Ratings 17th Jan. 20121/17/2012 10:16:44 AM1/17/2012 1:28:46 PM
2708140||Volunteer For Written Updates||1/17/2012 10:20:37 AM1/20/2012 3:53:54 AM
2708270**||~Abhi:The Supercop AT~||**1/17/2012 10:34:28 AM3/1/2012 9:22:48 PM
2708316**||~HNLHS:WU:15-1-12~||**1/17/2012 10:39:10 AM1/17/2012 12:22:48 PM
2708486*~GOTW:Word Chain~*1/17/2012 10:59:41 AM1/23/2012 5:42:50 AM
2708975llSHAPATH Written/Video Update - NO COMMENTS1/17/2012 12:02:19 PM1/26/2014 5:45:20 PM
2709118**||~HNLHS:WU:16-1-12~||**1/17/2012 12:19:54 PM1/17/2012 1:24:20 PM
2709594**||~HNLHS:WU:17-1-12~||**1/17/2012 1:17:41 PM1/18/2012 12:36:44 PM
271065515+16th Jan EHQ Hum Ne Li Hai...Shapath VideoWO/DL1/17/2012 3:22:36 PM1/18/2012 3:12:22 AM
2710657Timings1/17/2012 3:23:01 PM1/18/2012 10:44:06 AM
271091817th Jan EHQ Hum Ne Li Hai...Shapath VideoWO/DL1/17/2012 3:55:27 PM1/17/2012 3:55:27 PM
2715820Gautam's entry???1/18/2012 2:10:53 AM1/18/2012 7:39:45 AM
2716601DOTW: What do you think?1/18/2012 3:47:38 AM1/19/2012 6:05:29 AM
2719863Episode Ratings 18th Jan. 20121/18/2012 10:14:42 AM1/18/2012 12:39:25 PM
2720411*|~|*Dashing & Cool Inspector Gautam AT # 1 *|~|*1/18/2012 11:18:29 AM7/23/2012 11:20:29 AM
2720602**||~HNLHS:WU:18-1-12~||**1/18/2012 11:46:00 AM1/18/2012 7:36:02 PM
2720648**!!HNLHS~Fan List!!**1/18/2012 11:52:02 AM1/31/2012 11:09:40 AM
2720812**Aren't we ignored?**1/18/2012 12:14:21 PM1/21/2012 10:05:47 AM
272239218th Jan EHQ Hum Ne Li Hai...Shapath VideoWO/DL1/18/2012 3:47:31 PM1/18/2012 3:47:31 PM
2724434Abhi Shikha & Shaadi...lolzz1/18/2012 8:57:59 PM1/22/2012 9:10:47 AM
2730958Episode Ratings 19th Jan. 20121/19/2012 11:30:06 AM1/20/2012 6:59:28 AM
2731296 **||~HNLHS:WU:19-1-12~||**1/19/2012 12:13:03 PM1/20/2012 9:41:53 AM
273311019th Jan EHQ Hum Ne Li Hai...Shapath VideoWO/DL1/19/2012 4:36:00 PM1/19/2012 10:46:15 PM
2737715TOI: Piyush toughens up1/20/2012 3:39:16 AM1/22/2012 2:29:09 PM
2740632Episoder Ratings 20 Jan. 20121/20/2012 10:14:07 AM1/21/2012 5:28:11 AM
2741592**||~HNLHS:WU:20-1-12~||**(Updated)1/20/2012 12:39:48 PM1/21/2012 10:41:42 AM
274316620th Jan EHQ Hum Ne Li Hai...Shapath VideoWO/DL1/20/2012 5:24:48 PM1/21/2012 3:26:11 AM
2746800Episode Ratings 21 Jan. 20121/21/2012 10:11:45 AM1/21/2012 7:10:31 PM
274705521st Jan EHQ Hum Ne Li Hai...Shapath VideoWO/DL1/21/2012 5:49:35 PM1/22/2012 11:56:39 AM
2747117The Love Triangle Track In Shapath1/21/2012 9:22:31 PM1/22/2012 11:47:04 AM
2747278Gautam/shikha fb scenes!!!1/22/2012 2:21:45 AM1/22/2012 5:17:10 AM
2747365.:Gautam Shikha Paradise:.llRight Here With Ull1/22/2012 4:21:22 AM3/5/2012 6:08:07 AM
2747448Pic Gautam-Shikha and Abhigyaan updated Page91/22/2012 6:20:24 AM3/18/2012 7:06:15 AM
2747548hello!1/22/2012 8:35:24 AM1/22/2012 11:50:25 PM
2747650Episode Ratings 22nd Jan. 20121/22/2012 10:14:22 AM1/22/2012 11:51:08 PM
2747958Gautam-Shikha Scene1/22/2012 9:22:20 PM1/23/2012 7:57:59 AM
274799422nd Jan EHQ Hum Ne Li Hai...Shapath VideoWO/DL1/22/2012 10:44:16 PM1/23/2012 12:12:02 AM
2748009abhigyans pair!1/22/2012 11:07:02 PM1/26/2012 8:16:35 AM
2748014Ur reaction on the 1st week!!!1/22/2012 11:13:59 PM1/22/2012 11:34:11 PM
2748015article: HNLHS1/22/2012 11:17:14 PM1/23/2012 9:39:18 PM
2748093*~!!HNLHS Chit Chat Corner!!~*1/23/2012 1:18:20 AM1/31/2012 2:05:28 PM
2748220i tot why not we cum up with names for them:)1/23/2012 3:25:15 AM1/23/2012 11:08:41 AM
2748232GOTW: Antakshari (Continue in New Thread)1/23/2012 3:37:27 AM1/26/2012 5:59:08 AM
2748237Delete Thread1/23/2012 3:41:07 AM1/23/2012 3:45:12 AM
2748246DOTW: Love Triangle1/23/2012 3:46:51 AM1/24/2012 10:52:20 PM
274826222/01/2012 Written Update1/23/2012 4:11:01 AM1/23/2012 9:25:33 AM
2748285inativity?!1/23/2012 4:35:56 AM1/23/2012 12:37:10 PM
2748854Episode Ratings 23rd Jan. 20121/23/2012 10:18:25 AM1/24/2012 12:50:07 AM
2748931Shikha's dress is the same one as IPKKND1/23/2012 10:53:42 AM1/24/2012 12:39:13 AM
2749029todays epi!1/23/2012 11:37:23 AM1/24/2012 6:18:30 AM
274924423rd Jan EHQ Hum Ne Li Hai...Shapath Video WO/DL1/23/2012 3:49:42 PM1/23/2012 3:49:42 PM
2749414Siggys- Gautam n Shikha1/23/2012 11:11:49 PM1/24/2012 6:16:12 AM
274964723/01/2012 Written Update1/24/2012 3:49:10 AM1/24/2012 5:33:09 AM
2749662Name For Gautam-Shikha1/24/2012 3:59:47 AM1/25/2012 9:44:50 AM
2749828rank!1/24/2012 6:24:14 AM1/24/2012 8:04:16 AM
2750249Episode Ratings 24th Jan. 20121/24/2012 10:12:57 AM1/24/2012 10:16:56 AM
275065824th Jan EHQ Hum Ne Li Hai...Shapath Video WO/DL1/24/2012 7:06:08 PM1/24/2012 9:56:50 PM
2750802Shikha's Wish1/24/2012 11:05:06 PM1/25/2012 9:05:39 AM
2750915Week 3 TRP Rating1/25/2012 1:07:36 AM1/27/2012 5:47:29 AM
275106424/01/2012 Written Update1/25/2012 3:50:57 AM1/26/2012 3:05:17 AM
2751189GOTW/DOTW Sign-up Sheet (Feb)1/25/2012 6:13:38 AM1/31/2012 5:46:27 AM
2751262Must Watch-HNLHS1/25/2012 7:13:57 AM1/26/2012 4:05:40 AM
2751657Episode Ratings 25th Jan. 20121/25/2012 10:14:15 AM1/27/2012 5:45:22 AM
2751785**~HAPPY REPUBLIC DAY~**1/25/2012 11:37:43 AM1/26/2012 12:44:29 AM
<< | 1 | 2 | 3 | 4 | 5 | 6 | 7 | 8 | 9 | 10 | ... >>